Location: Siratepeler Tepesi
(39.1042°N, 32.0781°E)
Time: 00:14:36
(UTC+00:00)

ERS-1 Rocket - Pass Details

Date: 11 April 2026
Orbit: 747 x 750 km, 98.2° (Epoch: 11 May)

Event Time Altitude Azimuth Distance (km) Brightness Sun altitude
Exits shadow 18:17:59 32° 172° (S) 1,253 3.8 -21.2°
Maximum altitude 18:20:19 82° 257° (WSW) 760 2.9 -21.6°
Drops below altitude 10° 18:25:20 10° 346° (NNW) 2,276 6.1 -22.4°
Sets 18:27:38 0° 347° (NNW) 3,205 6.9 -22.7°
